Flag for U.S.A. Weather past 2 weeks in Springfield, Missouri, U.S.A.

Now
71 °F

Clear.


Feels Like: 70 °F
Forecast: 73 / 93 °F
Wind: 5 mph from South

Location: Springfield Regional Airport

Current Time: Aug 27, 2014 at 6:47:33 AM

Latest Report: Aug 27, 2014 at 5:52 AM


Visibility: 10 mi

Pressure: 30.05 "Hg

Humidity: 84%

Dew point: 66 °F

Location of SpringfieldLocation

Historic Weather in Springfield — Graph

°F

Springfield temperature yesterday

Maximum temperature yesterday: 98 °F (at 3:52 PM)
Minimum temperature yesterday: 73 °F (at 10:52 PM)
Average temperature yesterday: 83 °F

Past Weeks' High & Low Weather Summary

 TemperatureHumidityPressure
High100 °F (Aug 24, 4:52 PM)97% (Aug 17, 7:52 AM)30.14 "Hg (Aug 17, 7:52 AM)
Low56 °F (Aug 13, 5:52 AM)21% (Aug 24, 4:52 PM)29.78 "Hg (Aug 19, 5:52 PM)
Average80 °F62%29.94 "Hg
* Reported Aug 12 4:52 AM — Aug 27 4:52 AM, Springfield, Weather by CustomWeather, © 2014

Note: Actual official high and low records may vary slightly from our data, if they occured in-between our weather recording intervals... More about our weather records

Advertising

Springfield weather history for previous 24 hours

 ConditionsComfort  
Time TempWeatherWind HumidityBarometerVisibility
4:52 AM
Aug 27
72 °FClear.No wind84%30.05 "Hg10 mi
3:52 AM74 °FClear.9 mph79%30.04 "Hg10 mi
2:52 AM72 °FClear.No wind84%30.05 "Hg10 mi
1:52 AM74 °FClear.5 mph82%30.05 "Hg10 mi
12:52 AM73 °FClear.3 mph84%30.05 "Hg10 mi
11:52 PM
Aug 26
73 °FClear.6 mph84%30.05 "Hg10 mi
10:52 PM73 °FClear.5 mph84%30.04 "Hg10 mi
9:52 PM75 °FClear.3 mph82%30.04 "Hg10 mi
8:52 PM77 °FPassing clouds.6 mph74%30.03 "Hg10 mi
7:52 PM80 °FLight rain. Scattered clouds.No wind67%30.04 "Hg10 mi
6:52 PM82 °FThundershowers. Broken clouds.7 mph63%30.03 "Hg10 mi
6:02 PM85 °FThunderstorms. Mostly cloudy.8 mph48%30.05 "Hg10 mi
5:52 PM84 °FThundershowers. Partly sunny.13 mph51%30.00 "Hg10 mi
4:52 PM91 °FThunderstorms. Partly sunny.15 mph44%29.99 "Hg10 mi
3:52 PM98 °FSunny.9 mph29%29.99 "Hg10 mi
2:52 PM97 °FSunny.3 mph33%30.01 "Hg10 mi
1:52 PM97 °FSunny.5 mph34%30.04 "Hg10 mi
12:52 PM94 °FPassing clouds.No wind38%30.06 "Hg10 mi
11:52 AM91 °FScattered clouds.No wind49%30.09 "Hg10 mi
10:52 AM89 °FSunny.No wind53%30.09 "Hg10 mi
9:52 AM86 °FSunny.7 mph63%30.08 "Hg10 mi
8:52 AM83 °FSunny.7 mph68%30.08 "Hg10 mi
7:52 AM78 °FSunny.3 mph79%30.09 "Hg10 mi
6:52 AM74 °FClear.3 mph85%30.06 "Hg10 mi
Weather by CustomWeather, © 2014

See weather overviewHow to use our weather pages